STARLINK-11454, 62059

Orbit data source: Space-Track

STARLINK-11454, 62059 is a payload satellite owned by SpaceX/Seattle (US) in LEO that was launched on Sun, 24 Nov 2024 UTC via an FALCON 9 launch vehicle from the Air Force Western Test Range (AFWTR). Payload-class satellites include a variety of spacecraft equipped with specific instruments for various scientific and technological missions. These include communications satellites like Starlink; space stations such as the ISS; scientific satellites like the Hubble; Earth observation satellites from companies like Planet Labs, Umbra, and HawkEye 360; GPS; miniature CubeSats for education and research; and military/defense satellites.

Loading next visibility...
Identifier
62059, 2024-217C
Orbit
LEO
Country
Flag of USUS
Related business
Manufacturer
SpaceX/Seattle
Mission
Operational Commercial Communications
Bus & Motor
STARLINK V2MD, Unknown motor
Mass
960 kg wet, ~910 kg dry
Launch date (UTC)
2024-11-24 (1 year ago)
Launch vehicle
FALCON 9
Launch site
Air Force Western Test Range (AFWTR)
Object type
Payload
Rocket body
Debris
Shape & HBR
Box + 2 Pan, 18.1 m
Radar Cross Section
36.964 m², Large (>1 m²)

Expand to show TLE details & history
Last TLE update: 18 hours ago

TLE from 18 hours ago
0 STARLINK-11454
1 62059U 24217C   26094.93367885  .00129793  00000-0  10601-2 0  9999
2 62059  53.1559 302.0157 0001550 166.8081 193.2978 15.69695135 79297
Epoch: 2026-04-04T22:24Z
TLE epoch observation values (Epoch: 2026-04-04T22:24:29.852Z)
Latitude
-0°
Longitude
132.64497°
Altitude
361.7 km
Speed
7.693 km/s
True Right ascension
20h 08m 03s
True Declination
0° 00' 00"
Sunlit
Object was in daylight at epoch
Visualization orbit readout
Latitude
Unknown
Longitude
Unknown
Altitude
Unknown
Speed
Unknown
Apparent Right ascension
Unknown
Apparent Declination
Unknown
Sunlit
N/A
Visualization observer readout
Local Sidereal Time
21:57:19
Azimuth
Unknown
Elevation
Unknown
Doppler factor
Unknown
Orbital elements
Apogee altitude
361.075 km
Perigee altitude
358.986 km
Semi-major axis
6,738.168 km
Eccentricity
0.00016
Inclination
53.1559°
RAAN
302.0157°
Arg. of periapsis
166.8081°
True anomaly
193.29372°
Mean anomaly
193.2978°
Eccentric anomaly
193.29576°
Mean motion
3.92401 °/min
Orbital period
91.74 mins
BSTAR
0.0010601
Loading maneuver chart data...
Computing Atmospheric mass density...
Loading historical data...
Loading historical data...
Loading historical data...
Loading historical data...
Loading historical data...
Loading historical data...
Loading historical data...

Documentation

Showing up to 5 results
|